Location: Newark
(37.9800°N, 91.3000°W)
Time: 11:53:50
(UTC+00:00)

NOAA 19 - Pass Details

Date: 07 December 2019
Orbit: 840 x 862 km, 99.2° (Epoch: 17 January)

Event Time Altitude Azimuth Distance (km) Brightness Sun altitude
Rises 10:24:14 0° 35° (NE) 3,439 8.7 -31.4°
Reaches altitude 10° 10:27:52 10° 60° (ENE) 2,493 8.2 -30.7°
Maximum altitude 10:30:44 14° 91° (E) 2,192 8.2 -30.2°
Drops below altitude 10° 10:33:36 10° 123° (ESE) 2,477 8.4 -29.6°
Sets 10:37:10 0° 147° (SSE) 3,402 8.9 -28.9°
